STARLINK-31030, 58542

Orbit data source: Space-Track

STARLINK-31030, 58542 is a payload satellite owned by SpaceX/Seattle (US) in LEO that was launched on Fri, 08 Dec 2023 UTC via an FALCON 9 launch vehicle from the Air Force Western Test Range (AFWTR). Payload-class satellites include a variety of spacecraft equipped with specific instruments for various scientific and technological missions. These include communications satellites like Starlink; space stations such as the ISS; scientific satellites like the Hubble; Earth observation satellites from companies like Planet Labs, Umbra, and HawkEye 360; GPS; miniature CubeSats for education and research; and military/defense satellites.

Loading next visibility...
Identifier
58542, 2023-192M
Orbit
LEO
Country
Flag of USUS
Related business
Manufacturer
SpaceX/Seattle
Mission
Operational Commercial Communications
Bus & Motor
STARLINK V2M, Unknown motor
Mass
730 kg wet, ~700 kg dry
Launch date (UTC)
2023-12-08 (3 years ago)
Launch vehicle
FALCON 9
Launch site
Air Force Western Test Range (AFWTR)
Object type
Payload
Rocket body
Debris
Shape & HBR
Box + 2 Pan, 17.7 m
Radar Cross Section
33.884 m², Large (>1 m²)

Expand to show TLE details & history
Last TLE update: 2 days ago

TLE from 2 days ago
0 STARLINK-31030
1 58542U 23192M   26171.40917625 -.00001090  00000-0 -21156-4 0  9993
2 58542  53.1590 304.0999 0000877  88.5415 271.5688 15.34387966141731
Epoch: 2026-06-20T09:49Z
TLE epoch observation values (Epoch: 2026-06-20T09:49:12.827Z)
Latitude
-0.00005°
Longitude
-111.8278°
Altitude
463.624 km
Speed
7.636 km/s
True Right ascension
20h 16m 23s
True Declination
0° 00' 00"
Sunlit
Object was in full shadow at epoch
Visualization orbit readout
Latitude
Unknown
Longitude
Unknown
Altitude
Unknown
Speed
Unknown
Apparent Right ascension
Unknown
Apparent Declination
Unknown
Sunlit
N/A
Visualization observer readout
Local Sidereal Time
21:25:18
Azimuth
Unknown
Elevation
Unknown
Doppler factor
Unknown
Orbital elements
Apogee altitude
463.596 km
Perigee altitude
462.396 km
Semi-major axis
6,841.133 km
Eccentricity
0.00009
Inclination
53.159°
RAAN
304.0999°
Arg. of periapsis
88.5415°
True anomaly
271.55875°
Mean anomaly
271.5688°
Eccentric anomaly
271.56378°
Mean motion
3.83576 °/min
Orbital period
93.85 mins
BSTAR
-0.000021156
Loading maneuver chart data...
Computing Atmospheric mass density...
Loading historical data...
Loading historical data...
Loading historical data...
Loading historical data...
Loading historical data...
Loading historical data...
Loading historical data...

Documentation

Showing up to 5 results
|